Regional Weather Roundup
Issued by NWS

Home | Current Version | Previous Version | Text Only | Print | Product List | Glossary Off
Versions: 1 2 3 4 5 6 7 8 9 10 11 12 13 14 15 16 17 18 19 20 21 22 23 24 25 26 27 28 29 30 31 32 33 34 35 36 37 38 39 40 41 42 43 44 45 46 47 48 49 50

939
ASUS44 KLIX 291910
RWRLA
LOUISIANA WEATHER ROUNDUP
NATIONAL WEATHER SERVICE NEW ORLEANS LA
200 PM CDT TUE JUL 29 2014

NOTE: "FAIR" INDICATES FEW OR NO CLOUDS BELOW 12,000 FEET WITH NO
      SIGNIFICANT WEATHER AND/OR OBSTRUCTIONS TO VISIBILITY.
      SKY/WX - SKY CONDITION AND SIGNIFICANT WEATHER.
      TMP - AIR TEMPERATURE.    DP   - DEWPOINT TEMPERATURE.
      RH  - RELATIVE HUMIDITY.  PRES - PRESSURE.
      HX  - HEAT INDEX.         WCI  - WIND CHILL INDEX.

*  THESE STATIONS ARE NOT NWS OR FAA STATIONS AND ARE NOT UNDER
   NWS QUALITY CONTROL.

LAZ040-048-061>063-065-066-069-292000-
SOUTHEAST LOUISIANA

CITY           SKY/WX    TMP DP  RH WIND       PRES   REMARKS
N.O. AUDUBON     N/A     90  67  46 MISG        N/A
N.O. INTL ARPT PTSUNNY   89  66  46 VRB6      30.05F
N.O. LAKEFRONT PTSUNNY   86  66  51 N5        30.06F
N.O. DOWNTOWN* FAIR      88  63  42 N6        30.05F
SLIDELL        PTSUNNY   87  65  47 VRB7      30.04F
BATON ROUGE    MOSUNNY   87  66  49 VRB3      30.06F
BOOTHVILLE     PTSUNNY   85  70  60 VRB6      30.05F
BELLE CHASSE   PTSUNNY   86  66  51 NE5       30.04F
BOGALUSA*        N/A     87  63  45 NW6       30.06F
GALLIANO*      NOT AVBL
NEW ROADS*     FAIR      85  66  51 N6        30.06F
GONZALES*      MOCLDY    85  68  55 CALM      30.05F
HAMMOND*       MOSUNNY   90  61  37 N8        30.07F
HOUMA*         PTSUNNY   88  64  45 N6        30.04
PORT FOURCHON* CLEAR     88  70  55 NE6       30.05F

$$

LAZ041-044-053-054-292000-
SOUTHWEST LOUISIANA

CITY           SKY/WX    TMP DP  RH WIND       PRES   REMARKS
LAKE CHARLES   MOSUNNY   90  69  50 MISG      30.06F
LAFAYETTE      SUNNY     88  65  46 N6        30.06F
PATTERSON      PTSUNNY   88  72  58 N6        30.09F
SALT POINT       N/A     88  73  61 CALM      30.05F HX  95
NEW IBERIA     MOSUNNY   89  69  51 VRB5      30.07F
CHENAULT AIRPK MOSUNNY   90  66  45 CALM      30.08R

$$

LAZ027-028-292000-
CENTRAL LOUISIANA

CITY           SKY/WX    TMP DP  RH WIND       PRES   REMARKS
FORT POLK      PTSUNNY   85  66  53 N7        30.08F
ALEXANDRIA INT MOSUNNY   89  63  41 VRB6      30.05F
ALEXANDRIA     MOSUNNY   90  65  43 VRB5      30.07F

$$

LAZ001-002-292000-
NORTHWEST LOUISIANA

CITY           SKY/WX    TMP DP  RH WIND       PRES   REMARKS
SHREVEPORT     MOSUNNY   90  64  42 N7        30.09F
BARKSDALE AFB  MOSUNNY   89  64  43 NW6       30.09F
DTN SHREVEPORT MOSUNNY   89  62  40 VRB6      30.09F

$$

LAZ014-016-292000-
NORTHEAST LOUISIANA

CITY           SKY/WX    TMP DP  RH WIND       PRES   REMARKS
MONROE         PTSUNNY   89  65  44 N10       30.08F
TALLULAH       SUNNY     89  65  44 VRB7      30.07F

$$




USA.gov is the U.S. government's official web portal to all federal, state and local government web resources and services.